STARLINK-32704 (62826 NORAD) Tracking and Keplerian Element Data

This shows tracking and keplerian element data for the satellite.

Feedback or suggestion? Click here.




ElementValue
Catalog62826
NameSTARLINK-32704
Epoch Orbit5099
Epoch Day354.17019622
Epoch Year2025
RAAN318.97
Inclination53.1628
Eccentricity0.0001748
Argument of Perigee135.1478
Mean Anonmoly224.9665
Mean Motion15.30196556
Decay Rate0.00012829
L11 62826U 25018W 25354.17019622 .00012829 00000+0 44458-3 0 9996
L22 62826 53.1628 318.9700 0001748 135.1478 224.9665 15.30196556 50996



Live tracking and technical data element details for STARLINK-32704 (NORAD 62826). STARLINK-32704 can be tracked NOW for your location showing map with azimuth and elevation plus other details from your city location.







IsCatalogInMostPopularTable: catalog: 62826, numindb: 253
Update: records affected: 1



GetName: 62826 STARLINK-32704

Hit Count: updated at: Sun, 08 Feb 2026 17:20:03 GMT